Geely Xingzuo 06 zu 01 xing

operational
NORAD ID: 65713 Int'l Des: 2025-214 Owner: GEESP Country: CN Constellation: geesatcom
LEOCIRCULAR

Über Geely Xingzuo 06 zu 01 xing

Beschreibung wird geladen...

Live-Position

3D-Globus wird geladen...

Nächste Überflüge

Höhenverlauf

Altitude vs Time

uPlot chart will show altitude changes over time

Zweizeiliger Elementsatz

1 65713U 25214B 26063.15632919 .00002976 00000-0 38861-3 0 9992
2 65713 49.9848 75.0956 0012345 190.2528 169.8160 14.83086653 23910
Epoch: 4. März 2026 • Age: 24 hours

Aktueller Status

Höhe 611.9 km
Geschwindigkeit 7.56 km/s
Subsatellitenpunkt 13.16°N, 78.88°E
Startdatum 24. Sept. 2025
Alter 0.4 years
Typ other

Technische Details

Klassifizierung Payload
Masse 130.00 kg
Trockenmasse 130.00 kg
Gesamtmasse 130.00 kg
Länge 1.00 m
Durchmesser 0.50 m
Spannweite 2.00 m
Form Box + 2 pan
Hersteller GWCG
Bus-Typ GPS100
Phasenstatus In Orbit
Besitzer/Staat GEESP/CN

Große Konstellationen

Loading constellations...